Location: Clifton Park
(41.4873°N, 81.8024°W)
Time: 15:59:18
(UTC+00:00)

BREEZE-M DEB (TANK) - Pass Details

Date: 21 January 2020
Orbit: 358 x 14911 km, 49.5° (Epoch: 18 February)

Event Time Altitude Azimuth Distance (km) Brightness Sun altitude
Rises 00:18:47 0° 224° (SW) 3,935 8.5 -20.6°
Reaches altitude 10° 00:22:28 10° 217° (SW) 2,109 6.9 -21.2°
Enters shadow 00:25:27 33° 180° (S) 776 4.1 -21.8°
